Weather History for Glasgow, United Kingdom

Change the Weather History Date:

Sunday, June 30, 2013

  Actual Average Record
Temperature  
Mean Temperature 55 °F -  
Max Temperature 60 °F 65 °F 73 °F (2010)
Min Temperature 50 °F 49 °F 41 °F (2007)
Degree Days  
Heating Degree Days 10    
Growing Degree Days 5 (Base 50)    
Moisture  
Dew Point 51 °F    
Average Humidity 83    
Maximum Humidity 94    
Minimum Humidity 72    
Precipitation  
Precipitation 0.00 in - - ()
Sea Level Pressure  
Sea Level Pressure 29.95 in    
Wind  
Wind Speed 12 mph ()    
Max Wind Speed 22 mph    
Max Gust Speed 34 mph    
Visibility 5.7 miles    
Events Rain    
Averages and records for this station are not official NWS values.
T = Trace of Precipitation, MM = Missing Value Source: Averaged Metar Reports

Daily Weather History Graph

Daily Weather History Graph

Search for Another Location

Airport:

Trip Planner

Search our weather history database for the weather conditions in past years. The results will help you decide how hot, cold, wet, or windy it might be!

Date:

Astronomy

Jun. 30, 2013 Rise Set
Actual Time 4:36 AM BST 10:06 PM BST
Civil Twilight 3:35 AM BST 11:06 PM BST
Nautical Twilight 1:53 AM BST 12:49 AM BST
Astronomical Twilight Sun does not rise Sun does not rise
Moon 12:29 AM BST (6/30) 2:11 PM BST (6/30)
Length of Visible Light 19h 31m
Length of Day
17h 29m
Waning Gibbous, 48% of the Moon is Illuminated
Jun 30
Waning Gibbous
Jul 8
New
Jul 16
First Quarter
Jul 22
Full
Jul 29
Last Quarter

Hourly Weather History & Observations

Time (BST) Temp. Dew Point Humidity Pressure Visibility Wind Dir Wind Speed Gust Speed Precip Events Conditions
12:20 AM 57.2 °F 51.8 °F 82% 30.09 in 6.2 mi West 13.8 mph - N/A   Mostly Cloudy
12:50 AM 57.2 °F 51.8 °F 82% 30.09 in 6.2 mi WSW 8.1 mph - N/A   Mostly Cloudy
1:20 AM 57.2 °F 51.8 °F 82% 30.09 in 6.2 mi WSW 8.1 mph - N/A   Mostly Cloudy
1:50 AM 57.2 °F 51.8 °F 82% 30.09 in 6.2 mi West 6.9 mph - N/A   Mostly Cloudy
2:20 AM 57.2 °F 51.8 °F 82% 30.09 in 6.2 mi SW 5.8 mph - N/A   Mostly Cloudy
2:50 AM 57.2 °F 51.8 °F 82% 30.06 in 6.2 mi WSW 9.2 mph - N/A   Mostly Cloudy
3:20 AM 57.2 °F 51.8 °F 82% 30.06 in 6.2 mi WSW 6.9 mph - N/A   Mostly Cloudy
3:50 AM 57.2 °F 51.8 °F 82% 30.04 in 6.2 mi SW 8.1 mph - N/A   Overcast
4:20 AM 57.2 °F 51.8 °F 82% 30.04 in 6.2 mi WSW 8.1 mph - N/A   Overcast
4:50 AM 57.2 °F 51.8 °F 82% 30.01 in 6.2 mi WSW 9.2 mph - N/A   Overcast
5:20 AM 57.2 °F 51.8 °F 82% 30.01 in 6.2 mi WSW 9.2 mph - N/A   Mostly Cloudy
5:50 AM 57.2 °F 51.8 °F 82% 30.01 in 6.2 mi West 10.4 mph - N/A   Mostly Cloudy
6:20 AM 57.2 °F 51.8 °F 82% 30.01 in 6.2 mi WSW 16.1 mph - N/A   Mostly Cloudy
6:50 AM 57.2 °F 51.8 °F 82% 30.01 in 6.2 mi WSW 16.1 mph - N/A   Mostly Cloudy
7:20 AM 57.2 °F 53.6 °F 88% 30.01 in 6.2 mi SW 12.7 mph - N/A   Mostly Cloudy
7:50 AM 57.2 °F 53.6 °F 88% 29.98 in 6.2 mi SW 15.0 mph - N/A   Mostly Cloudy
8:20 AM 57.2 °F 51.8 °F 82% 29.98 in 6.2 mi SW 15.0 mph - N/A   Mostly Cloudy
8:50 AM 59.0 °F 51.8 °F 77% 29.98 in 6.2 mi SW 16.1 mph - N/A   Mostly Cloudy
9:20 AM 60.8 °F 53.6 °F 77% 29.98 in 6.2 mi SW 16.1 mph - N/A   Mostly Cloudy
9:50 AM 59.0 °F 51.8 °F 77% 29.98 in 6.2 mi SW 17.3 mph - N/A   Mostly Cloudy
10:20 AM 57.2 °F 53.6 °F 88% 29.95 in 4.3 mi SW 17.3 mph - N/A   Light Drizzle
10:50 AM 57.2 °F 53.6 °F 88% 29.95 in 2.5 mi SW 18.4 mph - N/A Rain Light Rain
11:20 AM 57.2 °F 53.6 °F 88% 29.95 in 5.0 mi SSW 18.4 mph - N/A   Mostly Cloudy
11:50 AM 60.8 °F 55.4 °F 82% 29.92 in 4.3 mi SW 21.9 mph - N/A   Light Drizzle
12:20 PM 59.0 °F 55.4 °F 88% 29.92 in 3.7 mi SW 21.9 mph - N/A Rain Light Rain
12:50 PM 59.0 °F 55.4 °F 88% 29.92 in 5.0 mi SW 17.3 mph - N/A   Light Drizzle
1:20 PM 60.8 °F 55.4 °F 82% 29.89 in 6.2 mi SSW 20.7 mph 34.5 mph N/A   Mostly Cloudy
1:50 PM 60.8 °F 55.4 °F 82% 29.89 in 2.5 mi SW 20.7 mph - N/A Rain Light Rain
2:20 PM 59.0 °F 55.4 °F 88% 29.89 in 1.6 mi WSW 15.0 mph - N/A Rain Rain
2:50 PM 57.2 °F 53.6 °F 88% 29.89 in 5.6 mi West 12.7 mph - N/A Rain Light Rain
3:20 PM 57.2 °F 55.4 °F 94% 29.89 in 3.1 mi West 11.5 mph - N/A Rain Rain
3:50 PM 57.2 °F 53.6 °F 88% 29.89 in 6.2 mi WSW 10.4 mph - N/A Rain Light Rain
4:20 PM 55.4 °F 51.8 °F 88% 29.89 in 6.2 mi WSW 12.7 mph - N/A Rain Light Rain
4:50 PM 55.4 °F 51.8 °F 88% 29.89 in 6.2 mi West 10.4 mph - N/A   Mostly Cloudy
5:20 PM 55.4 °F 50.0 °F 82% 29.89 in 6.2 mi West 13.8 mph - N/A   Mostly Cloudy
5:50 PM 55.4 °F 48.2 °F 77% 29.89 in 6.2 mi West 12.7 mph - N/A   Mostly Cloudy
6:20 PM 55.4 °F 48.2 °F 77% 29.89 in 6.2 mi WSW 11.5 mph - N/A   Mostly Cloudy
6:50 PM 57.2 °F 48.2 °F 72% 29.89 in 6.2 mi West 17.3 mph - N/A   Mostly Cloudy
7:20 PM 55.4 °F 48.2 °F 77% 29.89 in 6.2 mi West 17.3 mph - N/A   Mostly Cloudy
7:50 PM 55.4 °F 48.2 °F 77% 29.89 in 6.2 mi WSW 16.1 mph - N/A   Mostly Cloudy
8:20 PM 53.6 °F 46.4 °F 77% 29.89 in 6.2 mi West 15.0 mph - N/A   Mostly Cloudy
8:50 PM 53.6 °F 48.2 °F 82% 29.89 in 6.2 mi WSW 12.7 mph - N/A   Scattered Clouds
9:20 PM 53.6 °F 48.2 °F 82% 29.89 in 6.2 mi WSW 15.0 mph - N/A   Scattered Clouds
9:50 PM 53.6 °F 48.2 °F 82% 29.89 in 6.2 mi WSW 15.0 mph - N/A   Mostly Cloudy
10:20 PM 53.6 °F 46.4 °F 77% 29.89 in 6.2 mi WSW 13.8 mph - N/A   Mostly Cloudy
10:50 PM 51.8 °F 46.4 °F 82% 29.89 in 6.2 mi West 13.8 mph - N/A   Mostly Cloudy
11:20 PM 50.0 °F 48.2 °F 94% 29.89 in 6.2 mi West 9.2 mph - N/A   Scattered Clouds
11:50 PM 51.8 °F 46.4 °F 82% 29.89 in 6.2 mi WSW 12.7 mph - N/A   Scattered Clouds